Time,TemperatureF,DewpointF,PressureIn,WindDirection,WindDirectionDegrees,WindSpeedMPH,WindSpeedGustMPH,Humidity,HourlyPrecipIn,Conditions,Clouds,dailyrainin,SoftwareType,DateUTC
2013-08-19 00:04:00,77.4,70.0,29.91,South,185,0.0,0.0,78,0.00,,,0.00,Wunderground v.1.15,2013-08-19 05:04:00,
2013-08-19 00:09:00,77.2,69.8,29.91,South,185,0.0,0.0,78,0.00,,,0.00,Wunderground v.1.15,2013-08-19 05:09:00,
2013-08-19 00:14:00,76.8,69.4,29.91,South,185,0.0,0.0,78,0.00,,,0.00,Wunderground v.1.15,2013-08-19 05:14:00,
2013-08-19 00:19:00,76.8,69.8,29.91,South,185,0.0,0.0,79,0.00,,,0.00,Wunderground v.1.15,2013-08-19 05:19:00,
2013-08-19 00:24:00,76.7,69.7,29.91,South,185,0.0,0.0,79,0.00,,,0.00,Wunderground v.1.15,2013-08-19 05:24:00,
2013-08-19 00:29:00,76.5,69.9,29.91,South,185,0.0,0.0,80,0.00,,,0.00,Wunderground v.1.15,2013-08-19 05:29:00,
2013-08-19 00:34:00,76.3,70.0,29.92,South,185,0.0,0.0,81,0.00,,,0.00,Wunderground v.1.15,2013-08-19 05:34:00,
2013-08-19 00:40:00,76.1,69.8,29.92,South,185,0.0,0.0,81,0.00,,,0.00,Wunderground v.1.15,2013-08-19 05:40:00,
2013-08-19 00:45:00,76.0,69.7,29.92,South,185,0.0,0.0,81,0.00,,,0.00,Wunderground v.1.15,2013-08-19 05:45:00,
2013-08-19 00:50:00,75.8,69.6,29.92,South,185,0.0,0.0,81,0.00,,,0.00,Wunderground v.1.15,2013-08-19 05:50:00,
2013-08-19 00:55:00,75.6,69.4,29.92,South,185,0.0,0.0,81,0.00,,,0.00,Wunderground v.1.15,2013-08-19 05:55:00,
2013-08-19 01:00:00,75.6,69.4,29.92,South,185,0.0,0.0,81,0.00,,,0.00,Wunderground v.1.15,2013-08-19 06:00:00,
2013-08-19 01:05:00,75.4,69.2,29.92,South,185,0.0,0.0,81,0.00,,,0.00,Wunderground v.1.15,2013-08-19 06:05:00,
2013-08-19 01:10:00,75.3,69.8,29.92,North,350,0.0,0.0,83,0.00,,,0.00,Wunderground v.1.15,2013-08-19 06:10:00,
2013-08-19 01:15:00,75.1,69.6,29.92,North,350,0.0,0.0,83,0.00,,,0.00,Wunderground v.1.15,2013-08-19 06:15:00,
2013-08-19 01:20:00,74.9,69.4,29.92,North,350,0.0,0.0,83,0.00,,,0.00,Wunderground v.1.15,2013-08-19 06:20:00,
2013-08-19 01:25:00,74.9,69.7,29.92,North,350,0.0,0.0,84,0.00,,,0.00,Wunderground v.1.15,2013-08-19 06:25:00,
2013-08-19 01:30:00,74.7,69.5,29.92,North,350,0.0,0.0,84,0.00,,,0.00,Wunderground v.1.15,2013-08-19 06:30:00,
2013-08-19 01:36:00,74.7,69.5,29.92,North,350,0.0,0.0,84,0.00,,,0.00,Wunderground v.1.15,2013-08-19 06:36:00,
2013-08-19 01:41:00,74.7,69.5,29.92,North,350,0.0,0.0,84,0.00,,,0.00,Wunderground v.1.15,2013-08-19 06:41:00,
2013-08-19 01:46:00,74.6,69.4,29.92,North,350,0.0,0.0,84,0.00,,,0.00,Wunderground v.1.15,2013-08-19 06:46:00,
2013-08-19 01:51:00,74.6,69.4,29.92,North,350,0.0,0.0,84,0.00,,,0.00,Wunderground v.1.15,2013-08-19 06:51:00,
2013-08-19 01:56:00,74.6,69.4,29.92,North,350,0.0,0.0,84,0.00,,,0.00,Wunderground v.1.15,2013-08-19 06:56:00,
2013-08-19 02:01:00,74.6,69.4,29.92,North,350,0.0,0.0,84,0.00,,,0.00,Wunderground v.1.15,2013-08-19 07:01:00,
2013-08-19 02:06:00,74.4,69.2,29.92,North,350,0.0,0.0,84,0.00,,,0.00,Wunderground v.1.15,2013-08-19 07:06:00,
2013-08-19 02:11:00,74.4,69.2,29.92,North,350,0.0,0.0,84,0.00,,,0.00,Wunderground v.1.15,2013-08-19 07:11:00,
2013-08-19 02:17:00,74.2,69.1,29.92,North,350,0.0,0.0,84,0.00,,,0.00,Wunderground v.1.15,2013-08-19 07:17:00,
2013-08-19 02:22:00,74.0,68.9,29.92,North,350,0.0,0.0,84,0.00,,,0.00,Wunderground v.1.15,2013-08-19 07:22:00,
2013-08-19 02:27:00,73.9,68.8,29.92,North,350,0.0,0.0,84,0.00,,,0.00,Wunderground v.1.15,2013-08-19 07:27:00,
2013-08-19 02:32:00,73.9,69.1,29.92,North,350,0.0,0.0,85,0.00,,,0.00,Wunderground v.1.15,2013-08-19 07:32:00,
2013-08-19 02:37:00,73.9,69.1,29.92,North,350,0.0,0.0,85,0.00,,,0.00,Wunderground v.1.15,2013-08-19 07:37:00,
2013-08-19 02:42:00,73.9,69.1,29.92,North,350,0.0,0.0,85,0.00,,,0.00,Wunderground v.1.15,2013-08-19 07:42:00,
2013-08-19 02:47:00,73.7,68.9,29.92,North,350,0.0,0.0,85,0.00,,,0.00,Wunderground v.1.15,2013-08-19 07:47:00,
2013-08-19 02:52:00,73.7,68.9,29.92,North,350,0.0,0.0,85,0.00,,,0.00,Wunderground v.1.15,2013-08-19 07:52:00,
2013-08-19 02:57:00,73.5,68.7,29.92,North,350,0.0,0.0,85,0.00,,,0.00,Wunderground v.1.15,2013-08-19 07:57:00,
2013-08-19 03:02:00,73.5,68.7,29.92,North,350,0.0,0.0,85,0.00,,,0.00,Wunderground v.1.15,2013-08-19 08:02:00,
2013-08-19 03:07:00,73.5,68.7,29.92,North,350,0.0,0.0,85,0.00,,,0.00,Wunderground v.1.15,2013-08-19 08:07:00,
2013-08-19 03:13:00,73.3,68.5,29.92,North,350,0.0,0.0,85,0.00,,,0.00,Wunderground v.1.15,2013-08-19 08:13:00,
2013-08-19 03:18:00,73.3,68.5,29.92,North,350,0.0,0.0,85,0.00,,,0.00,Wunderground v.1.15,2013-08-19 08:18:00,
2013-08-19 03:23:00,73.2,68.8,29.92,North,350,0.0,0.0,86,0.00,,,0.00,Wunderground v.1.15,2013-08-19 08:23:00,
2013-08-19 03:28:00,73.2,68.8,29.92,North,350,0.0,0.0,86,0.00,,,0.00,Wunderground v.1.15,2013-08-19 08:28:00,
2013-08-19 03:33:00,73.2,68.8,29.92,North,350,0.0,0.0,86,0.00,,,0.00,Wunderground v.1.15,2013-08-19 08:33:00,
2013-08-19 03:38:00,73.2,68.8,29.92,North,350,0.0,0.0,86,0.00,,,0.00,Wunderground v.1.15,2013-08-19 08:38:00,
2013-08-19 03:43:00,73.2,68.8,29.92,North,350,0.0,0.0,86,0.00,,,0.00,Wunderground v.1.15,2013-08-19 08:43:00,
2013-08-19 03:48:00,73.2,68.8,29.92,North,350,0.0,0.0,86,0.00,,,0.00,Wunderground v.1.15,2013-08-19 08:48:00,
2013-08-19 03:53:00,73.2,68.8,29.92,North,350,0.0,0.0,86,0.00,,,0.00,Wunderground v.1.15,2013-08-19 08:53:00,
2013-08-19 03:58:00,73.2,69.1,29.92,North,350,0.0,0.0,87,0.00,,,0.00,Wunderground v.1.15,2013-08-19 08:58:00,
2013-08-19 04:03:00,73.2,69.1,29.92,North,350,0.0,0.0,87,0.00,,,0.00,Wunderground v.1.15,2013-08-19 09:03:00,
2013-08-19 04:09:00,73.2,68.8,29.92,North,350,0.0,0.0,86,0.00,,,0.00,Wunderground v.1.15,2013-08-19 09:09:00,
2013-08-19 04:14:00,73.2,69.1,29.92,North,350,0.0,0.0,87,0.00,,,0.00,Wunderground v.1.15,2013-08-19 09:14:00,
2013-08-19 04:19:00,73.2,69.1,29.92,North,350,0.0,0.0,87,0.00,,,0.00,Wunderground v.1.15,2013-08-19 09:19:00,
2013-08-19 04:24:00,73.2,69.1,29.92,North,350,0.0,0.0,87,0.00,,,0.00,Wunderground v.1.15,2013-08-19 09:24:00,
2013-08-19 04:29:00,73.0,68.9,29.92,North,350,0.0,0.0,87,0.00,,,0.00,Wunderground v.1.15,2013-08-19 09:29:00,
2013-08-19 04:34:00,73.0,68.9,29.92,North,350,0.0,0.0,87,0.00,,,0.00,Wunderground v.1.15,2013-08-19 09:34:00,
2013-08-19 04:39:00,73.0,68.9,29.92,North,350,0.0,0.0,87,0.00,,,0.00,Wunderground v.1.15,2013-08-19 09:39:00,
2013-08-19 04:44:00,72.8,68.7,29.92,North,350,0.0,0.0,87,0.00,,,0.00,Wunderground v.1.15,2013-08-19 09:44:00,
2013-08-19 04:49:00,72.8,68.7,29.92,North,350,0.0,0.0,87,0.00,,,0.00,Wunderground v.1.15,2013-08-19 09:49:00,
2013-08-19 04:54:00,72.7,68.6,29.92,North,350,0.0,0.0,87,0.00,,,0.00,Wunderground v.1.15,2013-08-19 09:54:00,
2013-08-19 04:59:00,72.7,68.6,29.92,North,350,0.0,0.0,87,0.00,,,0.00,Wunderground v.1.15,2013-08-19 09:59:00,
2013-08-19 05:04:00,72.5,68.4,29.93,North,350,0.0,0.0,87,0.00,,,0.00,Wunderground v.1.15,2013-08-19 10:04:00,
2013-08-19 05:09:00,72.5,68.7,29.93,North,350,0.0,0.0,88,0.00,,,0.00,Wunderground v.1.15,2013-08-19 10:09:00,
2013-08-19 05:15:00,72.3,68.5,29.93,North,350,0.0,0.0,88,0.00,,,0.00,Wunderground v.1.15,2013-08-19 10:15:00,
2013-08-19 05:20:00,72.1,68.3,29.93,North,350,0.0,0.0,88,0.00,,,0.00,Wunderground v.1.15,2013-08-19 10:20:00,
2013-08-19 05:25:00,72.1,68.3,29.93,North,350,0.0,0.0,88,0.00,,,0.00,Wunderground v.1.15,2013-08-19 10:25:00,
2013-08-19 05:30:00,72.0,68.2,29.93,North,350,0.0,0.0,88,0.00,,,0.00,Wunderground v.1.15,2013-08-19 10:30:00,
2013-08-19 05:35:00,71.8,68.4,29.93,North,350,0.0,0.0,89,0.00,,,0.00,Wunderground v.1.15,2013-08-19 10:35:00,
2013-08-19 05:40:00,71.8,68.4,29.93,North,350,0.0,0.0,89,0.00,,,0.00,Wunderground v.1.15,2013-08-19 10:40:00,
2013-08-19 05:45:00,71.6,68.2,29.94,North,350,0.0,0.0,89,0.00,,,0.00,Wunderground v.1.15,2013-08-19 10:45:00,
2013-08-19 05:50:00,71.6,68.2,29.94,North,350,0.0,0.0,89,0.00,,,0.00,Wunderground v.1.15,2013-08-19 10:50:00,
2013-08-19 05:56:00,71.5,68.1,29.94,North,350,0.0,0.0,89,0.00,,,0.00,Wunderground v.1.15,2013-08-19 10:56:00,
2013-08-19 06:01:00,71.5,68.1,29.94,North,350,0.0,0.0,89,0.00,,,0.00,Wunderground v.1.15,2013-08-19 11:01:00,
2013-08-19 06:06:00,71.6,68.2,29.94,North,350,0.0,0.0,89,0.00,,,0.00,Wunderground v.1.15,2013-08-19 11:06:00,
2013-08-19 06:11:00,71.6,68.2,29.94,North,350,0.0,0.0,89,0.00,,,0.00,Wunderground v.1.15,2013-08-19 11:11:00,
2013-08-19 06:16:00,71.5,68.1,29.94,North,350,0.0,0.0,89,0.00,,,0.00,Wunderground v.1.15,2013-08-19 11:16:00,
2013-08-19 06:21:00,71.5,68.4,29.94,North,350,0.0,0.0,90,0.00,,,0.00,Wunderground v.1.15,2013-08-19 11:21:00,
2013-08-19 06:26:00,71.5,68.4,29.94,North,350,0.0,0.0,90,0.00,,,0.00,Wunderground v.1.15,2013-08-19 11:26:00,
2013-08-19 06:31:00,71.6,68.5,29.94,North,350,0.0,0.0,90,0.00,,,0.00,Wunderground v.1.15,2013-08-19 11:31:00,
2013-08-19 06:37:00,71.6,68.5,29.94,North,350,0.0,0.0,90,0.00,,,0.00,Wunderground v.1.15,2013-08-19 11:37:00,
2013-08-19 06:42:00,71.6,68.5,29.94,North,350,0.0,0.0,90,0.00,,,0.00,Wunderground v.1.15,2013-08-19 11:42:00,
2013-08-19 06:47:00,71.6,68.5,29.94,North,350,0.0,0.0,90,0.00,,,0.00,Wunderground v.1.15,2013-08-19 11:47:00,
2013-08-19 06:52:00,71.6,68.5,29.94,North,350,0.0,0.0,90,0.00,,,0.00,Wunderground v.1.15,2013-08-19 11:52:00,
2013-08-19 06:57:00,71.6,68.5,29.94,North,350,0.0,0.0,90,0.00,,,0.00,Wunderground v.1.15,2013-08-19 11:57:00,
2013-08-19 07:02:00,71.6,68.5,29.94,North,350,0.0,0.0,90,0.00,,,0.00,Wunderground v.1.15,2013-08-19 12:02:00,
2013-08-19 07:07:00,71.6,68.5,29.94,North,350,0.0,0.0,90,0.00,,,0.00,Wunderground v.1.15,2013-08-19 12:07:00,
2013-08-19 07:12:00,71.6,68.5,29.94,North,350,0.0,0.0,90,0.00,,,0.00,Wunderground v.1.15,2013-08-19 12:12:00,
2013-08-19 07:17:00,71.8,68.7,29.95,North,350,0.0,0.0,90,0.00,,,0.00,Wunderground v.1.15,2013-08-19 12:17:00,
2013-08-19 07:22:00,72.0,68.9,29.95,North,350,0.0,0.0,90,0.00,,,0.00,Wunderground v.1.15,2013-08-19 12:22:00,
2013-08-19 07:27:00,72.1,69.0,29.95,North,350,0.0,0.0,90,0.00,,,0.00,Wunderground v.1.15,2013-08-19 12:27:00,
2013-08-19 07:32:00,72.5,69.4,29.95,North,350,0.0,0.0,90,0.00,,,0.00,Wunderground v.1.15,2013-08-19 12:32:00,
2013-08-19 07:38:00,72.8,69.7,29.95,North,350,0.0,0.0,90,0.00,,,0.00,Wunderground v.1.15,2013-08-19 12:38:00,
2013-08-19 07:43:00,73.3,69.9,29.95,ENE,58,0.0,0.0,89,0.00,,,0.00,Wunderground v.1.15,2013-08-19 12:43:00,
2013-08-19 07:48:00,73.9,70.1,29.95,ENE,58,0.0,0.0,88,0.00,,,0.00,Wunderground v.1.15,2013-08-19 12:48:00,
2013-08-19 07:53:00,74.4,69.9,29.95,ENE,58,0.0,0.0,86,0.00,,,0.00,Wunderground v.1.15,2013-08-19 12:53:00,
2013-08-19 07:58:00,75.1,70.3,29.95,ENE,58,0.0,0.0,85,0.00,,,0.00,Wunderground v.1.15,2013-08-19 12:58:00,
2013-08-19 08:03:00,75.6,70.4,29.95,East,79,0.0,0.0,84,0.00,,,0.00,Wunderground v.1.15,2013-08-19 13:03:00,
2013-08-19 08:08:00,76.1,70.2,29.95,East,79,0.0,0.0,82,0.00,,,0.00,Wunderground v.1.15,2013-08-19 13:08:00,
2013-08-19 08:13:00,76.7,70.8,29.95,East,79,0.0,0.0,82,0.00,,,0.00,Wunderground v.1.15,2013-08-19 13:13:00,
2013-08-19 08:19:00,77.2,70.2,29.96,ENE,64,0.0,2.0,79,0.00,,,0.00,Wunderground v.1.15,2013-08-19 13:19:00,
2013-08-19 08:24:00,77.9,70.5,29.96,ENE,64,0.0,0.0,78,0.00,,,0.00,Wunderground v.1.15,2013-08-19 13:24:00,
2013-08-19 08:29:00,78.5,70.3,29.96,ENE,64,0.0,0.0,76,0.00,,,0.00,Wunderground v.1.15,2013-08-19 13:29:00,
2013-08-19 08:34:00,78.8,70.2,29.97,NE,55,0.0,1.0,75,0.00,,,0.00,Wunderground v.1.15,2013-08-19 13:34:00,
2013-08-19 08:39:00,79.4,70.8,29.97,ENE,59,0.0,1.0,75,0.00,,,0.00,Wunderground v.1.15,2013-08-19 13:39:00,
2013-08-19 08:44:00,79.9,70.9,29.97,ENE,59,0.0,0.0,74,0.00,,,0.00,Wunderground v.1.15,2013-08-19 13:44:00,
2013-08-19 08:49:00,80.5,70.6,29.97,ENE,73,0.0,2.0,72,0.00,,,0.00,Wunderground v.1.15,2013-08-19 13:49:00,
2013-08-19 08:54:00,80.9,71.0,29.97,NE,56,0.0,0.0,72,0.00,,,0.00,Wunderground v.1.15,2013-08-19 13:54:00,
2013-08-19 08:59:00,81.4,71.1,29.97,ENE,59,1.0,2.0,71,0.00,,,0.00,Wunderground v.1.15,2013-08-19 13:59:00,
2013-08-19 09:04:00,81.6,70.9,29.97,East,79,1.0,3.0,70,0.00,,,0.00,Wunderground v.1.15,2013-08-19 14:04:00,
2013-08-19 09:10:00,81.8,70.6,29.97,ENE,75,1.0,6.0,69,0.00,,,0.00,Wunderground v.1.15,2013-08-19 14:10:00,
2013-08-19 09:15:00,82.4,70.8,29.97,ENE,61,1.0,2.0,68,0.00,,,0.00,Wunderground v.1.15,2013-08-19 14:15:00,
2013-08-19 09:20:00,82.8,71.2,29.97,NE,45,1.0,5.0,68,0.00,,,0.00,Wunderground v.1.15,2013-08-19 14:20:00,
2013-08-19 09:25:00,83.0,71.8,29.97,East,99,1.0,3.0,69,0.00,,,0.00,Wunderground v.1.15,2013-08-19 14:25:00,
2013-08-19 09:30:00,83.0,71.8,29.98,NNE,13,2.0,3.0,69,0.00,,,0.00,Wunderground v.1.15,2013-08-19 14:30:00,
2013-08-19 09:35:00,83.6,72.3,29.98,ESE,120,2.0,5.0,69,0.00,,,0.00,Wunderground v.1.15,2013-08-19 14:35:00,
2013-08-19 09:40:00,83.8,70.8,29.98,East,93,2.0,5.0,65,0.00,,,0.00,Wunderground v.1.15,2013-08-19 14:40:00,
2013-08-19 09:45:00,84.0,71.0,29.98,East,79,2.0,3.0,65,0.00,,,0.00,Wunderground v.1.15,2013-08-19 14:45:00,
2013-08-19 09:50:00,84.1,70.6,29.98,North,8,2.0,3.0,64,0.00,,,0.00,Wunderground v.1.15,2013-08-19 14:50:00,
2013-08-19 09:55:00,84.5,70.5,29.98,NE,40,2.0,2.0,63,0.00,,,0.00,Wunderground v.1.15,2013-08-19 14:55:00,
2013-08-19 10:02:00,85.3,70.8,29.98,NE,51,1.0,2.0,62,0.00,,,0.00,Wunderground v.1.15,2013-08-19 15:02:00,
2013-08-19 10:07:00,85.3,69.8,29.98,SE,137,3.0,5.0,60,0.00,,,0.00,Wunderground v.1.15,2013-08-19 15:07:00,
2013-08-19 10:12:00,85.3,69.8,29.98,ESE,114,3.0,3.0,60,0.00,,,0.00,Wunderground v.1.15,2013-08-19 15:12:00,
2013-08-19 10:17:00,85.5,69.0,29.98,NNE,16,3.0,3.0,58,0.00,,,0.00,Wunderground v.1.15,2013-08-19 15:17:00,
2013-08-19 10:22:00,85.7,69.2,29.98,East,92,2.0,2.0,58,0.00,,,0.00,Wunderground v.1.15,2013-08-19 15:22:00,
2013-08-19 10:28:00,86.1,69.6,29.98,SSE,150,2.0,6.0,58,0.00,,,0.00,Wunderground v.1.15,2013-08-19 15:28:00,
2013-08-19 10:33:00,86.3,68.2,29.98,SE,133,3.0,3.0,55,0.00,,,0.00,Wunderground v.1.15,2013-08-19 15:33:00,
2013-08-19 10:38:00,86.7,68.6,29.98,SE,130,3.0,3.0,55,0.00,,,0.00,Wunderground v.1.15,2013-08-19 15:38:00,
2013-08-19 10:43:00,86.5,67.9,29.98,ESE,120,4.0,4.0,54,0.00,,,0.00,Wunderground v.1.15,2013-08-19 15:43:00,
2013-08-19 10:48:00,87.0,67.8,29.99,SSW,206,4.0,6.0,53,0.00,,,0.00,Wunderground v.1.15,2013-08-19 15:48:00,
2013-08-19 10:53:00,87.4,68.2,29.99,NE,54,3.0,3.0,53,0.00,,,0.00,Wunderground v.1.15,2013-08-19 15:53:00,
2013-08-19 10:58:00,87.8,68.5,29.99,SW,226,1.0,5.0,53,0.00,,,0.00,Wunderground v.1.15,2013-08-19 15:58:00,
2013-08-19 11:03:00,88.2,68.9,29.98,South,184,2.0,5.0,53,0.00,,,0.00,Wunderground v.1.15,2013-08-19 16:03:00,
2013-08-19 11:08:00,88.4,69.1,29.98,SW,234,2.0,5.0,53,0.00,,,0.00,Wunderground v.1.15,2013-08-19 16:08:00,
2013-08-19 11:13:00,88.4,66.8,29.98,ESE,114,3.0,5.0,49,0.00,,,0.00,Wunderground v.1.15,2013-08-19 16:13:00,
2013-08-19 11:19:00,88.4,66.8,29.98,ESE,123,3.0,6.0,49,0.00,,,0.00,Wunderground v.1.15,2013-08-19 16:19:00,
2013-08-19 11:24:00,88.6,67.0,29.98,SE,141,3.0,5.0,49,0.00,,,0.00,Wunderground v.1.15,2013-08-19 16:24:00,
2013-08-19 11:29:00,89.0,66.8,29.98,SE,140,2.0,6.0,48,0.00,,,0.00,Wunderground v.1.15,2013-08-19 16:29:00,
2013-08-19 11:34:00,89.3,67.0,29.98,ESE,121,2.0,5.0,48,0.00,,,0.00,Wunderground v.1.15,2013-08-19 16:34:00,
2013-08-19 11:39:00,89.0,66.8,29.98,SW,220,3.0,5.0,48,0.00,,,0.00,Wunderground v.1.15,2013-08-19 16:39:00,
2013-08-19 11:44:00,89.3,67.0,29.98,NE,38,3.0,6.0,48,0.00,,,0.00,Wunderground v.1.15,2013-08-19 16:44:00,
2013-08-19 11:49:00,89.7,67.4,29.97,NNE,30,3.0,6.0,48,0.00,,,0.00,Wunderground v.1.15,2013-08-19 16:49:00,
2013-08-19 11:55:00,90.1,64.6,29.97,ESE,121,2.0,5.0,43,0.00,,,0.00,Wunderground v.1.15,2013-08-19 16:55:00,
2013-08-19 12:00:00,89.9,64.4,29.97,SSE,158,4.0,6.0,43,0.00,,,0.00,Wunderground v.1.15,2013-08-19 17:00:00,
2013-08-19 12:05:00,89.7,64.2,29.97,ESE,120,5.0,5.0,43,0.00,,,0.00,Wunderground v.1.15,2013-08-19 17:05:00,
2013-08-19 12:10:00,90.1,64.6,29.97,SE,141,4.0,7.0,43,0.00,,,0.00,Wunderground v.1.15,2013-08-19 17:10:00,
2013-08-19 12:15:00,90.5,64.3,29.97,SSE,152,4.0,4.0,42,0.00,,,0.00,Wunderground v.1.15,2013-08-19 17:15:00,
2013-08-19 12:20:00,91.0,64.7,29.97,SSE,150,2.0,4.0,42,0.00,,,0.00,Wunderground v.1.15,2013-08-19 17:20:00,
2013-08-19 12:25:00,91.4,64.4,29.97,ENE,69,2.0,8.0,41,0.00,,,0.00,Wunderground v.1.15,2013-08-19 17:25:00,
2013-08-19 12:31:00,91.6,64.6,29.96,East,99,3.0,8.0,41,0.00,,,0.00,Wunderground v.1.15,2013-08-19 17:31:00,
2013-08-19 12:36:00,91.4,64.4,29.96,East,86,3.0,5.0,41,0.00,,,0.00,Wunderground v.1.15,2013-08-19 17:36:00,
2013-08-19 12:41:00,91.2,64.2,29.96,East,99,3.0,10.0,41,0.00,,,0.00,Wunderground v.1.15,2013-08-19 17:41:00,
2013-08-19 12:46:00,91.6,63.1,29.96,ESE,112,4.0,5.0,39,0.00,,,0.00,Wunderground v.1.15,2013-08-19 17:46:00,
2013-08-19 12:51:00,91.8,61.0,29.96,ESE,116,5.0,5.0,36,0.00,,,0.00,Wunderground v.1.15,2013-08-19 17:51:00,
2013-08-19 12:56:00,91.8,62.6,29.96,NNE,30,5.0,7.0,38,0.00,,,0.00,Wunderground v.1.15,2013-08-19 17:56:00,
2013-08-19 13:01:00,91.8,61.8,29.95,ESE,120,4.0,6.0,37,0.00,,,0.00,Wunderground v.1.15,2013-08-19 18:01:00,
2013-08-19 13:07:00,92.5,62.4,29.95,East,93,3.0,6.0,37,0.00,,,0.00,Wunderground v.1.15,2013-08-19 18:07:00,
2013-08-19 13:12:00,92.7,62.6,29.95,ESE,107,3.0,6.0,37,0.00,,,0.00,Wunderground v.1.15,2013-08-19 18:12:00,
2013-08-19 13:17:00,92.3,62.3,29.95,SE,134,5.0,7.0,37,0.00,,,0.00,Wunderground v.1.15,2013-08-19 18:17:00,
2013-08-19 13:22:00,92.5,60.0,29.95,SE,133,6.0,6.0,34,0.00,,,0.00,Wunderground v.1.15,2013-08-19 18:22:00,
2013-08-19 13:27:00,92.3,59.9,29.95,South,176,5.0,6.0,34,0.00,,,0.00,Wunderground v.1.15,2013-08-19 18:27:00,
2013-08-19 13:32:00,91.8,59.4,29.94,SW,223,5.0,5.0,34,0.00,,,0.00,Wunderground v.1.15,2013-08-19 18:32:00,
2013-08-19 13:37:00,92.5,61.7,29.94,ESE,109,4.0,5.0,36,0.00,,,0.00,Wunderground v.1.15,2013-08-19 18:37:00,
2013-08-19 13:42:00,92.9,60.4,29.94,SE,127,2.0,3.0,34,0.00,,,0.00,Wunderground v.1.15,2013-08-19 18:42:00,
2013-08-19 13:47:00,92.7,60.2,29.93,ESE,119,3.0,7.0,34,0.00,,,0.00,Wunderground v.1.15,2013-08-19 18:47:00,
2013-08-19 13:52:00,92.7,59.4,29.93,ENE,73,4.0,5.0,33,0.00,,,0.00,Wunderground v.1.15,2013-08-19 18:52:00,
2013-08-19 13:57:00,93.4,60.0,29.93,NE,47,4.0,5.0,33,0.00,,,0.00,Wunderground v.1.15,2013-08-19 18:57:00,
2013-08-19 14:02:00,93.6,60.2,29.93,SE,143,2.0,2.0,33,0.00,,,0.00,Wunderground v.1.15,2013-08-19 19:02:00,
2013-08-19 14:08:00,93.4,60.0,29.93,East,96,3.0,8.0,33,0.00,,,0.00,Wunderground v.1.15,2013-08-19 19:08:00,
2013-08-19 14:13:00,93.4,60.0,29.93,SE,141,4.0,6.0,33,0.00,,,0.00,Wunderground v.1.15,2013-08-19 19:13:00,
2013-08-19 14:18:00,93.4,57.3,29.92,SSW,195,5.0,6.0,30,0.00,,,0.00,Wunderground v.1.15,2013-08-19 19:18:00,
2013-08-19 14:23:00,93.8,58.6,29.92,ESE,116,4.0,4.0,31,0.00,,,0.00,Wunderground v.1.15,2013-08-19 19:23:00,
2013-08-19 14:28:00,94.0,57.8,29.92,South,188,2.0,7.0,30,0.00,,,0.00,Wunderground v.1.15,2013-08-19 19:28:00,
2013-08-19 14:33:00,93.4,57.3,29.91,SSE,161,4.0,10.0,30,0.00,,,0.00,Wunderground v.1.15,2013-08-19 19:33:00,
2013-08-19 14:38:00,92.9,56.9,29.91,SSE,148,7.0,10.0,30,0.00,,,0.00,Wunderground v.1.15,2013-08-19 19:38:00,
2013-08-19 14:43:00,92.7,56.7,29.91,SSE,164,4.0,6.0,30,0.00,,,0.00,Wunderground v.1.15,2013-08-19 19:43:00,
2013-08-19 14:48:00,92.9,57.8,29.91,South,171,2.0,6.0,31,0.00,,,0.00,Wunderground v.1.15,2013-08-19 19:48:00,
2013-08-19 14:53:00,92.7,58.5,29.91,South,191,4.0,7.0,32,0.00,,,0.00,Wunderground v.1.15,2013-08-19 19:53:00,
2013-08-19 14:58:00,92.9,59.6,29.91,ESE,116,5.0,7.0,33,0.00,,,0.00,Wunderground v.1.15,2013-08-19 19:58:00,
2013-08-19 15:04:00,93.2,59.8,29.91,East,88,5.0,12.0,33,0.00,,,0.00,Wunderground v.1.15,2013-08-19 20:04:00,
2013-08-19 15:09:00,93.4,59.1,29.91,ESE,113,4.0,12.0,32,0.00,,,0.00,Wunderground v.1.15,2013-08-19 20:09:00,
2013-08-19 15:14:00,92.9,57.8,29.91,SSW,203,4.0,4.0,31,0.00,,,0.00,Wunderground v.1.15,2013-08-19 20:14:00,
2013-08-19 15:19:00,92.5,60.9,29.90,ESE,109,5.0,5.0,35,0.00,,,0.00,Wunderground v.1.15,2013-08-19 20:19:00,
2013-08-19 15:24:00,92.7,60.2,29.90,SSE,148,5.0,5.0,34,0.00,,,0.00,Wunderground v.1.15,2013-08-19 20:24:00,
2013-08-19 15:29:00,92.5,60.0,29.90,East,90,6.0,8.0,34,0.00,,,0.00,Wunderground v.1.15,2013-08-19 20:29:00,
2013-08-19 15:34:00,92.5,60.0,29.90,ENE,68,6.0,6.0,34,0.00,,,0.00,Wunderground v.1.15,2013-08-19 20:34:00,
2013-08-19 15:39:00,92.7,59.4,29.90,ESE,117,4.0,6.0,33,0.00,,,0.00,Wunderground v.1.15,2013-08-19 20:39:00,
2013-08-19 15:44:00,92.5,59.2,29.90,SSE,168,3.0,3.0,33,0.00,,,0.00,Wunderground v.1.15,2013-08-19 20:44:00,
2013-08-19 15:50:00,92.1,58.9,29.89,South,189,3.0,7.0,33,0.00,,,0.00,Wunderground v.1.15,2013-08-19 20:50:00,
2013-08-19 15:55:00,92.3,59.0,29.89,South,172,3.0,4.0,33,0.00,,,0.00,Wunderground v.1.15,2013-08-19 20:55:00,
2013-08-19 16:00:00,92.5,58.4,29.89,SSW,192,3.0,6.0,32,0.00,,,0.00,Wunderground v.1.15,2013-08-19 21:00:00,
2013-08-19 16:05:00,92.3,58.2,29.89,ESE,106,4.0,5.0,32,0.00,,,0.00,Wunderground v.1.15,2013-08-19 21:05:00,
2013-08-19 16:10:00,92.5,58.4,29.89,ENE,71,4.0,7.0,32,0.00,,,0.00,Wunderground v.1.15,2013-08-19 21:10:00,
2013-08-19 16:15:00,92.5,58.4,29.88,ESE,103,4.0,5.0,32,0.00,,,0.00,Wunderground v.1.15,2013-08-19 21:15:00,
2013-08-19 16:20:00,92.7,58.5,29.88,SE,145,3.0,5.0,32,0.00,,,0.00,Wunderground v.1.15,2013-08-19 21:20:00,
2013-08-19 16:25:00,93.2,59.8,29.88,SSE,158,2.0,6.0,33,0.00,,,0.00,Wunderground v.1.15,2013-08-19 21:25:00,
2013-08-19 16:30:00,93.4,60.0,29.88,ESE,113,4.0,7.0,33,0.00,,,0.00,Wunderground v.1.15,2013-08-19 21:30:00,
2013-08-19 16:35:00,92.9,60.4,29.88,SW,232,6.0,10.0,34,0.00,,,0.00,Wunderground v.1.15,2013-08-19 21:35:00,
2013-08-19 16:41:00,92.7,60.2,29.88,South,175,8.0,10.0,34,0.00,,,0.00,Wunderground v.1.15,2013-08-19 21:41:00,
2013-08-19 16:46:00,92.3,60.7,29.87,South,171,7.0,8.0,35,0.00,,,0.00,Wunderground v.1.15,2013-08-19 21:46:00,
2013-08-19 16:51:00,91.6,60.1,29.87,SSE,167,8.0,10.0,35,0.00,,,0.00,Wunderground v.1.15,2013-08-19 21:51:00,
2013-08-19 16:56:00,91.0,59.5,29.87,South,191,9.0,14.0,35,0.00,,,0.00,Wunderground v.1.15,2013-08-19 21:56:00,
2013-08-19 17:01:00,90.1,58.8,29.87,SSW,208,8.0,10.0,35,0.00,,,0.00,Wunderground v.1.15,2013-08-19 22:01:00,
2013-08-19 17:08:00,89.9,58.6,29.87,SE,140,8.0,10.0,35,0.00,,,0.00,Wunderground v.1.15,2013-08-19 22:08:00,
2013-08-19 17:13:00,89.9,62.3,29.87,SSW,205,5.0,5.0,40,0.00,,,0.00,Wunderground v.1.15,2013-08-19 22:13:00,
2013-08-19 17:18:00,89.7,62.2,29.87,South,186,5.0,10.0,40,0.00,,,0.00,Wunderground v.1.15,2013-08-19 22:18:00,
2013-08-19 17:23:00,89.3,62.5,29.87,South,189,6.0,6.0,41,0.00,,,0.00,Wunderground v.1.15,2013-08-19 22:23:00,
2013-08-19 17:28:00,89.0,62.2,29.87,South,172,6.0,11.0,41,0.00,,,0.00,Wunderground v.1.15,2013-08-19 22:28:00,
2013-08-19 17:33:00,89.0,62.2,29.87,South,189,6.0,7.0,41,0.00,,,0.00,Wunderground v.1.15,2013-08-19 22:33:00,
2013-08-19 17:39:00,89.0,61.5,29.87,SSE,157,4.0,7.0,40,0.00,,,0.00,Wunderground v.1.15,2013-08-19 22:39:00,
2013-08-19 17:44:00,89.0,61.5,29.87,SSW,193,4.0,5.0,40,0.00,,,0.00,Wunderground v.1.15,2013-08-19 22:44:00,
2013-08-19 17:49:00,89.0,60.8,29.87,SSW,210,3.0,8.0,39,0.00,,,0.00,Wunderground v.1.15,2013-08-19 22:49:00,
2013-08-19 17:54:00,89.3,59.6,29.87,South,179,4.0,5.0,37,0.00,,,0.00,Wunderground v.1.15,2013-08-19 22:54:00,
2013-08-19 17:59:00,89.3,60.4,29.87,South,184,4.0,8.0,38,0.00,,,0.00,Wunderground v.1.15,2013-08-19 22:59:00,
2013-08-19 18:04:00,89.3,60.4,29.87,South,174,4.0,5.0,38,0.00,,,0.00,Wunderground v.1.15,2013-08-19 23:04:00,
2013-08-19 18:09:00,89.0,60.1,29.87,SSW,196,5.0,8.0,38,0.00,,,0.00,Wunderground v.1.15,2013-08-19 23:09:00,
2013-08-19 18:14:00,88.8,59.9,29.87,South,175,6.0,8.0,38,0.00,,,0.00,Wunderground v.1.15,2013-08-19 23:14:00,
2013-08-19 18:19:00,88.8,59.9,29.87,South,184,6.0,8.0,38,0.00,,,0.00,Wunderground v.1.15,2013-08-19 23:19:00,
2013-08-19 18:24:00,88.8,57.6,29.87,South,176,5.0,5.0,35,0.00,,,0.00,Wunderground v.1.15,2013-08-19 23:24:00,
2013-08-19 18:30:00,88.8,57.6,29.87,South,184,5.0,6.0,35,0.00,,,0.00,Wunderground v.1.15,2013-08-19 23:30:00,
2013-08-19 18:35:00,88.8,58.4,29.86,SSE,165,5.0,5.0,36,0.00,,,0.00,Wunderground v.1.15,2013-08-19 23:35:00,
2013-08-19 18:40:00,88.8,59.2,29.86,SSE,154,3.0,6.0,37,0.00,,,0.00,Wunderground v.1.15,2013-08-19 23:40:00,
2013-08-19 18:45:00,89.0,59.3,29.86,SSE,150,2.0,3.0,37,0.00,,,0.00,Wunderground v.1.15,2013-08-19 23:45:00,
2013-08-19 18:50:00,89.0,59.3,29.86,South,171,2.0,3.0,37,0.00,,,0.00,Wunderground v.1.15,2013-08-19 23:50:00,
2013-08-19 18:55:00,88.8,59.2,29.86,SSE,155,2.0,3.0,37,0.00,,,0.00,Wunderground v.1.15,2013-08-19 23:55:00,
2013-08-19 19:00:00,88.6,59.0,29.86,South,171,2.0,3.0,37,0.00,,,0.00,Wunderground v.1.15,2013-08-20 00:00:00,
2013-08-19 19:05:00,88.6,61.2,29.86,South,181,2.0,6.0,40,0.00,,,0.00,Wunderground v.1.15,2013-08-20 00:05:00,
2013-08-19 19:10:00,88.2,60.8,29.86,South,186,4.0,6.0,40,0.00,,,0.00,Wunderground v.1.15,2013-08-20 00:10:00,
2013-08-19 19:15:00,88.0,63.4,29.86,SSW,199,4.0,4.0,44,0.00,,,0.00,Wunderground v.1.15,2013-08-20 00:15:00,
2013-08-19 19:20:00,87.8,63.8,29.86,South,181,3.0,10.0,45,0.00,,,0.00,Wunderground v.1.15,2013-08-20 00:20:00,
2013-08-19 19:25:00,87.4,65.3,29.86,SSW,193,4.0,8.0,48,0.00,,,0.00,Wunderground v.1.15,2013-08-20 00:25:00,
2013-08-19 19:31:00,87.0,66.1,29.87,SSE,160,4.0,8.0,50,0.00,,,0.00,Wunderground v.1.15,2013-08-20 00:31:00,
2013-08-19 19:36:00,86.7,66.4,29.87,SSE,148,3.0,5.0,51,0.00,,,0.00,Wunderground v.1.15,2013-08-20 00:36:00,
2013-08-19 19:41:00,86.3,67.2,29.87,South,174,4.0,7.0,53,0.00,,,0.00,Wunderground v.1.15,2013-08-20 00:41:00,
2013-08-19 19:46:00,86.1,67.0,29.87,South,188,3.0,4.0,53,0.00,,,0.00,Wunderground v.1.15,2013-08-20 00:46:00,
2013-08-19 19:51:00,85.7,67.1,29.87,SSE,157,3.0,6.0,54,0.00,,,0.00,Wunderground v.1.15,2013-08-20 00:51:00,
2013-08-19 19:56:00,85.5,67.5,29.87,SSW,196,3.0,6.0,55,0.00,,,0.00,Wunderground v.1.15,2013-08-20 00:56:00,
2013-08-19 20:01:00,85.3,67.8,29.87,South,172,2.0,2.0,56,0.00,,,0.00,Wunderground v.1.15,2013-08-20 01:01:00,
2013-08-19 20:06:00,85.1,67.6,29.87,South,185,2.0,5.0,56,0.00,,,0.00,Wunderground v.1.15,2013-08-20 01:06:00,
2013-08-19 20:12:00,84.9,68.0,29.87,South,175,2.0,2.0,57,0.00,,,0.00,Wunderground v.1.15,2013-08-20 01:12:00,
2013-08-19 20:17:00,84.7,68.3,29.87,SW,220,2.0,5.0,58,0.00,,,0.00,Wunderground v.1.15,2013-08-20 01:17:00,
2013-08-19 20:22:00,84.3,67.9,29.87,SSW,196,2.0,2.0,58,0.00,,,0.00,Wunderground v.1.15,2013-08-20 01:22:00,
2013-08-19 20:27:00,84.1,67.7,29.87,SSE,162,3.0,5.0,58,0.00,,,0.00,Wunderground v.1.15,2013-08-20 01:27:00,
2013-08-19 20:32:00,84.0,68.6,29.88,SSW,200,3.0,3.0,60,0.00,,,0.00,Wunderground v.1.15,2013-08-20 01:32:00,
2013-08-19 20:37:00,83.8,68.9,29.88,SSE,161,3.0,3.0,61,0.00,,,0.00,Wunderground v.1.15,2013-08-20 01:37:00,
2013-08-19 20:42:00,83.6,68.7,29.88,SSW,192,3.0,3.0,61,0.00,,,0.00,Wunderground v.1.15,2013-08-20 01:42:00,
2013-08-19 20:47:00,83.4,68.5,29.88,SSW,199,2.0,3.0,61,0.00,,,0.00,Wunderground v.1.15,2013-08-20 01:47:00,
2013-08-19 20:52:00,83.2,68.8,29.88,South,172,2.0,3.0,62,0.00,,,0.00,Wunderground v.1.15,2013-08-20 01:52:00,
2013-08-19 20:57:00,83.0,68.6,29.88,South,181,2.0,5.0,62,0.00,,,0.00,Wunderground v.1.15,2013-08-20 01:57:00,
2013-08-19 21:02:00,82.8,68.9,29.88,South,191,2.0,3.0,63,0.00,,,0.00,Wunderground v.1.15,2013-08-20 02:02:00,
2013-08-19 21:07:00,82.4,69.0,29.88,South,184,2.0,5.0,64,0.00,,,0.00,Wunderground v.1.15,2013-08-20 02:07:00,
2013-08-19 21:12:00,82.4,69.0,29.88,SSE,162,3.0,6.0,64,0.00,,,0.00,Wunderground v.1.15,2013-08-20 02:12:00,
2013-08-19 21:18:00,82.2,68.8,29.89,SSW,198,3.0,6.0,64,0.00,,,0.00,Wunderground v.1.15,2013-08-20 02:18:00,
2013-08-19 21:23:00,82.0,69.1,29.89,SSW,208,2.0,2.0,65,0.00,,,0.00,Wunderground v.1.15,2013-08-20 02:23:00,
2013-08-19 21:28:00,81.8,69.3,29.89,SSW,212,1.0,2.0,66,0.00,,,0.00,Wunderground v.1.15,2013-08-20 02:28:00,
2013-08-19 21:33:00,81.6,69.1,29.89,SSW,206,1.0,5.0,66,0.00,,,0.00,Wunderground v.1.15,2013-08-20 02:33:00,
2013-08-19 21:38:00,81.6,69.6,29.89,South,184,1.0,5.0,67,0.00,,,0.00,Wunderground v.1.15,2013-08-20 02:38:00,
2013-08-19 21:43:00,81.4,69.4,29.89,SSE,164,1.0,2.0,67,0.00,,,0.00,Wunderground v.1.15,2013-08-20 02:43:00,
2013-08-19 21:48:00,81.2,69.6,29.89,SSW,210,2.0,3.0,68,0.00,,,0.00,Wunderground v.1.15,2013-08-20 02:48:00,
2013-08-19 21:53:00,81.1,69.5,29.89,South,189,3.0,3.0,68,0.00,,,0.00,Wunderground v.1.15,2013-08-20 02:53:00,
2013-08-19 21:58:00,81.1,69.5,29.89,SSW,192,3.0,3.0,68,0.00,,,0.00,Wunderground v.1.15,2013-08-20 02:58:00,
2013-08-19 22:03:00,80.9,69.3,29.90,SSW,199,3.0,3.0,68,0.00,,,0.00,Wunderground v.1.15,2013-08-20 03:03:00,
2013-08-19 22:09:00,80.9,69.3,29.90,SSW,195,2.0,5.0,68,0.00,,,0.00,Wunderground v.1.15,2013-08-20 03:09:00,
2013-08-19 22:14:00,80.7,69.2,29.90,South,189,3.0,3.0,68,0.00,,,0.00,Wunderground v.1.15,2013-08-20 03:14:00,
2013-08-19 22:19:00,80.5,69.0,29.90,South,182,2.0,5.0,68,0.00,,,0.00,Wunderground v.1.15,2013-08-20 03:19:00,
2013-08-19 22:24:00,80.3,69.2,29.90,SSW,192,1.0,3.0,69,0.00,,,0.00,Wunderground v.1.15,2013-08-20 03:24:00,
2013-08-19 22:29:00,80.3,69.2,29.90,SSW,203,2.0,3.0,69,0.00,,,0.00,Wunderground v.1.15,2013-08-20 03:29:00,
2013-08-19 22:34:00,80.1,69.0,29.90,SSW,198,3.0,3.0,69,0.00,,,0.00,Wunderground v.1.15,2013-08-20 03:34:00,
2013-08-19 22:39:00,79.9,69.2,29.90,SSW,203,2.0,3.0,70,0.00,,,0.00,Wunderground v.1.15,2013-08-20 03:39:00,
2013-08-19 22:44:00,79.8,69.1,29.90,SSW,213,1.0,1.0,70,0.00,,,0.00,Wunderground v.1.15,2013-08-20 03:44:00,
2013-08-19 22:49:00,79.8,69.1,29.91,SSW,205,2.0,6.0,70,0.00,,,0.00,Wunderground v.1.15,2013-08-20 03:49:00,
2013-08-19 22:54:00,79.6,69.0,29.91,South,189,3.0,3.0,70,0.00,,,0.00,Wunderground v.1.15,2013-08-20 03:54:00,
2013-08-19 22:59:00,79.6,69.0,29.91,South,191,1.0,3.0,70,0.00,,,0.00,Wunderground v.1.15,2013-08-20 03:59:00,
2013-08-19 23:01:00,79.6,69.0,29.91,South,191,1.0,3.0,70,0.00,,,0.00,Wunderground v.1.15,2013-08-20 04:01:00,
2013-08-19 23:02:00,79.4,68.8,29.91,South,191,1.0,1.0,70,0.00,,,0.00,Wunderground v.1.15,2013-08-20 04:02:00,
2013-08-19 23:04:00,79.4,68.8,29.91,South,191,1.0,1.0,70,0.00,,,0.00,Wunderground v.1.15,2013-08-20 04:04:00,
2013-08-19 23:06:00,79.4,68.8,29.91,South,191,1.0,2.0,70,0.00,,,0.00,Wunderground v.1.15,2013-08-20 04:06:00,
2013-08-19 23:08:00,79.4,68.8,29.91,South,191,1.0,2.0,70,0.00,,,0.00,Wunderground v.1.15,2013-08-20 04:08:00,
2013-08-19 23:13:00,79.2,69.4,29.91,South,191,1.0,1.0,72,0.00,,,0.00,Wunderground v.1.15,2013-08-20 04:13:00,
2013-08-19 23:18:00,79.0,69.2,29.90,South,191,0.0,1.0,72,0.00,,,0.00,Wunderground v.1.15,2013-08-20 04:18:00,
2013-08-19 23:23:00,78.8,69.4,29.90,South,191,0.0,0.0,73,0.00,,,0.00,Wunderground v.1.15,2013-08-20 04:23:00,
2013-08-19 23:28:00,78.8,69.4,29.90,South,191,0.0,0.0,73,0.00,,,0.00,Wunderground v.1.15,2013-08-20 04:28:00,
2013-08-19 23:33:00,78.6,69.2,29.91,South,191,0.0,0.0,73,0.00,,,0.00,Wunderground v.1.15,2013-08-20 04:33:00,
2013-08-19 23:38:00,78.6,69.2,29.91,South,191,0.0,0.0,73,0.00,,,0.00,Wunderground v.1.15,2013-08-20 04:38:00,
2013-08-19 23:43:00,78.5,69.1,29.91,South,191,0.0,0.0,73,0.00,,,0.00,Wunderground v.1.15,2013-08-20 04:43:00,
2013-08-19 23:48:00,78.3,69.3,29.90,South,191,0.0,0.0,74,0.00,,,0.00,Wunderground v.1.15,2013-08-20 04:48:00,
2013-08-19 23:53:00,78.3,69.7,29.90,South,191,0.0,0.0,75,0.00,,,0.00,Wunderground v.1.15,2013-08-20 04:53:00,
2013-08-19 23:59:00,78.1,69.5,29.90,South,191,0.0,0.0,75,0.00,,,0.00,Wunderground v.1.15,2013-08-20 04:59:00,